Radiation Dose at Monitoring Post of Fukushima Daini Nuclear Power Station
Date,Time,MP-1(microSv/h),MP-2(microSv/h),MP-3(microSv/h),MP-4(microSv/h),MP-5(microSv/h),MP-6(microSv/h),MP-7(microSv/h),Wind Direction,Wind Velocity(m/s),Rain
2017/09/10,00:00,0.346,0.214,0.349,0.325,0.317,0.172,0.105,south-southwest,4.1,No
2017/09/10,00:10,0.349,0.212,0.347,0.327,0.315,0.172,0.105,south-southwest,4.3,No
2017/09/10,00:20,0.346,0.213,0.349,0.326,0.319,0.172,0.104,southwest,5.4,No
2017/09/10,00:30,0.350,0.213,0.347,0.326,0.315,0.173,0.104,southwest,5.3,No
2017/09/10,00:40,0.348,0.213,0.349,0.329,0.317,0.172,0.104,southwest,4.4,No
2017/09/10,00:50,0.347,0.214,0.346,0.327,0.316,0.172,0.105,southwest,2.4,No
2017/09/10,01:00,0.348,0.213,0.350,0.329,0.317,0.172,0.104,west-southwest,2.9,No
2017/09/10,01:10,0.347,0.212,0.347,0.325,0.317,0.173,0.105,west,3.3,No
2017/09/10,01:20,0.350,0.213,0.350,0.327,0.313,0.173,0.105,west,3.2,No
2017/09/10,01:30,0.347,0.211,0.347,0.325,0.319,0.172,0.105,west-northwest,1.9,No
2017/09/10,01:40,0.350,0.211,0.348,0.327,0.315,0.172,0.104,west,2.2,No
2017/09/10,01:50,0.346,0.213,0.349,0.325,0.318,0.172,0.105,west-southwest,2.7,No
2017/09/10,02:00,0.348,0.212,0.349,0.328,0.316,0.172,0.104,southwest,1.1,No
2017/09/10,02:10,0.345,0.213,0.349,0.326,0.317,0.172,0.105,west-southwest,1.4,No
2017/09/10,02:20,0.349,0.211,0.348,0.326,0.315,0.171,0.105,west-southwest,1.2,No
2017/09/10,02:30,0.346,0.213,0.350,0.327,0.316,0.173,0.105,west-southwest,2.0,No
2017/09/10,02:40,0.349,0.213,0.347,0.327,0.317,0.172,0.105,west-southwest,2.4,No
2017/09/10,02:50,0.346,0.212,0.350,0.328,0.316,0.173,0.105,west,1.8,No
2017/09/10,03:00,0.349,0.211,0.347,0.325,0.317,0.172,0.105,north-northwest,1.4,No
2017/09/10,03:10,0.347,0.212,0.350,0.327,0.313,0.172,0.105,north-northeast,1.9,No
2017/09/10,03:20,0.348,0.212,0.347,0.325,0.319,0.171,0.104,northeast,2.0,No
2017/09/10,03:30,0.346,0.212,0.350,0.328,0.315,0.173,0.105,north-northeast,1.9,No
2017/09/10,03:40,0.348,0.213,0.347,0.325,0.319,0.171,0.105,north-northeast,1.6,No
2017/09/10,03:50,0.348,0.212,0.350,0.328,0.315,0.173,0.105,north,3.1,No
2017/09/10,04:00,0.346,0.214,0.347,0.325,0.317,0.172,0.106,north,2.5,No
2017/09/10,04:10,0.348,0.212,0.349,0.328,0.315,0.172,0.105,north-northeast,1.6,No
2017/09/10,04:20,0.347,0.214,0.348,0.326,0.314,0.171,0.105,north-northeast,1.9,No
2017/09/10,04:30,0.348,0.212,0.350,0.327,0.317,0.173,0.105,north-northeast,2.0,No
2017/09/10,04:40,0.347,0.213,0.348,0.327,0.314,0.172,0.106,north-northeast,1.7,No
2017/09/10,04:50,0.350,0.211,0.351,0.328,0.319,0.173,0.105,north-northeast,0.9,No
2017/09/10,05:00,0.345,0.214,0.349,0.326,0.315,0.172,0.105,northeast,0.7,No
2017/09/10,05:10,0.348,0.213,0.348,0.327,0.318,0.172,0.105,-,CALM,No
2017/09/10,05:20,0.346,0.212,0.348,0.325,0.315,0.172,0.105,east-northeast,1.1,No
2017/09/10,05:30,0.350,0.212,0.348,0.328,0.318,0.173,0.105,east-northeast,0.6,No
2017/09/10,05:40,0.347,0.213,0.349,0.327,0.316,0.172,0.105,south-southeast,2.1,No
2017/09/10,05:50,0.349,0.213,0.348,0.327,0.317,0.172,0.105,south,2.8,No
2017/09/10,06:00,0.347,0.213,0.351,0.330,0.316,0.172,0.106,south,2.8,No
2017/09/10,06:10,0.348,0.213,0.348,0.325,0.316,0.173,0.105,south-southwest,2.2,No
2017/09/10,06:20,0.347,0.213,0.351,0.329,0.320,0.173,0.105,south-southwest,2.0,No
2017/09/10,06:30,0.347,0.212,0.346,0.325,0.315,0.172,0.105,south,1.9,No
2017/09/10,06:40,0.349,0.212,0.351,0.327,0.318,0.173,0.105,south-southwest,1.4,No
2017/09/10,06:50,0.345,0.212,0.346,0.327,0.317,0.172,0.106,southwest,1.2,No
2017/09/10,07:00,0.349,0.213,0.348,0.324,0.314,0.173,0.105,south-southwest,2.5,No
2017/09/10,07:10,0.347,0.212,0.349,0.329,0.318,0.172,0.104,south-southwest,4.7,No
2017/09/10,07:20,0.347,0.212,0.345,0.324,0.315,0.173,0.105,south-southwest,5.8,No
2017/09/10,07:30,0.349,0.213,0.350,0.325,0.313,0.173,0.105,southwest,6.3,No
2017/09/10,07:40,0.344,0.211,0.347,0.327,0.319,0.171,0.104,southwest,6.0,No
2017/09/10,07:50,0.348,0.213,0.348,0.325,0.316,0.173,0.105,southwest,4.2,No
2017/09/10,08:00,0.347,0.213,0.349,0.323,0.312,0.173,0.106,southwest,3.2,No
2017/09/10,08:10,0.345,0.213,0.346,0.328,0.318,0.172,0.105,southwest,2.5,No
2017/09/10,08:20,0.349,0.213,0.348,0.327,0.316,0.172,0.105,south,1.5,No
2017/09/10,08:30,0.348,0.213,0.348,0.327,0.314,0.172,0.104,south,2.8,No
2017/09/10,08:40,0.345,0.212,0.345,0.325,0.312,0.172,0.105,south,3.3,No
2017/09/10,08:50,0.344,0.212,0.350,0.325,0.318,0.172,0.105,south-southwest,2.1,No
2017/09/10,09:00,0.342,0.212,0.350,0.325,0.318,0.173,0.105,south-southwest,2.5,No
2017/09/10,09:10,0.349,0.212,0.346,0.326,0.316,0.174,0.105,south-southwest,4.2,No
2017/09/10,09:20,0.350,0.212,0.350,0.324,0.316,0.173,0.104,south,4.2,No
2017/09/10,09:30,0.349,0.211,0.351,0.327,0.315,0.173,0.106,south-southeast,3.6,No
2017/09/10,09:40,0.346,0.212,0.347,0.325,0.315,0.173,0.104,south-southeast,4.4,No
2017/09/10,09:50,0.347,0.213,0.345,0.327,0.315,0.172,0.106,south,4.7,No
2017/09/10,10:00,0.346,0.213,0.349,0.328,0.316,0.171,0.105,south,4.7,No
2017/09/10,10:10,0.347,0.213,0.350,0.327,0.316,0.173,0.106,south,5.3,No
2017/09/10,10:20,0.346,0.214,0.346,0.328,0.315,0.173,0.104,south,6.2,No
2017/09/10,10:30,0.347,0.213,0.345,0.328,0.316,0.173,0.105,south,5.6,No
2017/09/10,10:40,0.348,0.213,0.348,0.327,0.316,0.174,0.105,south,5.4,No
2017/09/10,10:50,0.348,0.213,0.350,0.327,0.316,0.173,0.106,south,4.8,No
2017/09/10,11:00,0.347,0.213,0.351,0.327,0.316,0.172,0.105,south,4.2,No
2017/09/10,11:10,0.346,0.214,0.351,0.328,0.316,0.172,0.105,south,4.6,No
2017/09/10,11:20,0.346,0.213,0.350,0.327,0.315,0.173,0.105,south,4.2,No
2017/09/10,11:30,0.347,0.214,0.349,0.329,0.316,0.173,0.106,south-southeast,4.2,No
2017/09/10,11:40,0.347,0.214,0.349,0.327,0.316,0.173,0.105,south,6.6,No
2017/09/10,11:50,0.348,0.213,0.345,0.327,0.317,0.172,0.105,south,6.1,No
2017/09/10,12:00,0.348,0.213,0.348,0.327,0.315,0.173,0.105,south,4.9,No
2017/09/10,12:10,0.348,0.212,0.348,0.328,0.316,0.173,0.105,south,4.7,No
2017/09/10,12:20,0.346,0.212,0.347,0.327,0.317,0.172,0.105,south,3.8,No
2017/09/10,12:30,0.348,0.212,0.347,0.326,0.315,0.172,0.104,south-southeast,3.6,No
2017/09/10,12:40,0.348,0.213,0.347,0.325,0.317,0.173,0.105,south-southeast,3.8,No
2017/09/10,12:50,0.347,0.213,0.348,0.325,0.316,0.173,0.105,south-southeast,4.6,No
2017/09/10,13:00,0.346,0.213,0.348,0.326,0.316,0.172,0.105,south-southeast,5.5,No
2017/09/10,13:10,0.348,0.214,0.350,0.326,0.317,0.172,0.104,south-southeast,4.7,No
2017/09/10,13:20,0.348,0.214,0.349,0.327,0.317,0.172,0.106,south,4.5,No
2017/09/10,13:30,0.348,0.215,0.349,0.327,0.316,0.171,0.105,south-southeast,4.1,No
2017/09/10,13:40,0.348,0.214,0.349,0.329,0.316,0.173,0.105,south,5.3,No
2017/09/10,13:50,0.346,0.214,0.349,0.327,0.316,0.173,0.105,south-southeast,4.9,No
2017/09/10,14:00,0.347,0.212,0.350,0.328,0.316,0.173,0.104,south,5.5,No
2017/09/10,14:10,0.348,0.212,0.350,0.326,0.317,0.172,0.105,south,4.5,No
2017/09/10,14:20,0.346,0.214,0.349,0.328,0.315,0.172,0.106,south-southwest,5.9,No
2017/09/10,14:30,0.346,0.212,0.348,0.327,0.317,0.173,0.105,south,3.9,No
2017/09/10,14:40,0.345,0.214,0.349,0.327,0.316,0.172,0.105,south,3.4,No
2017/09/10,14:50,0.346,0.212,0.349,0.327,0.316,0.173,0.105,south,3.2,No
2017/09/10,15:00,0.346,0.212,0.348,0.327,0.317,0.172,0.104,south-southeast,3.3,No
2017/09/10,15:10,0.349,0.213,0.347,0.325,0.316,0.174,0.104,south,3.4,No
2017/09/10,15:20,0.351,0.213,0.346,0.325,0.315,0.174,0.105,south-southeast,3.6,No
2017/09/10,15:30,0.352,0.212,0.347,0.326,0.315,0.172,0.106,south,2.9,No
2017/09/10,15:40,0.348,0.211,0.345,0.330,0.316,0.174,0.105,south-southwest,1.5,No
2017/09/10,15:50,0.346,0.214,0.347,0.329,0.316,0.173,0.104,south-southeast,2.4,No
2017/09/10,16:00,0.351,0.215,0.350,0.327,0.316,0.172,0.105,south,3.1,No
2017/09/10,16:10,0.352,0.214,0.350,0.325,0.317,0.173,0.107,south-southwest,1.6,No
2017/09/10,16:20,0.350,0.213,0.348,0.328,0.316,0.173,0.105,-,CALM,No
2017/09/10,16:30,0.347,0.212,0.346,0.330,0.316,0.172,0.105,north-northwest,0.8,No
2017/09/10,16:40,0.349,0.215,0.348,0.329,0.316,0.172,0.104,north-northwest,2.1,No
2017/09/10,16:50,0.353,0.214,0.353,0.328,0.316,0.172,0.105,north,3.1,No
2017/09/10,17:00,0.349,0.212,0.350,0.328,0.315,0.173,0.106,north,3.2,No
2017/09/10,17:10,0.346,0.214,0.348,0.330,0.315,0.174,0.104,north-northwest,5.3,No
2017/09/10,17:20,0.350,0.215,0.349,0.328,0.315,0.172,0.105,north,7.0,No
2017/09/10,17:30,0.349,0.213,0.353,0.325,0.315,0.172,0.105,north,5.0,No
2017/09/10,17:40,0.347,0.213,0.350,0.329,0.314,0.174,0.104,north,6.5,No
2017/09/10,17:50,0.347,0.214,0.348,0.328,0.320,0.174,0.105,north,5.8,No
2017/09/10,18:00,0.351,0.214,0.351,0.326,0.318,0.172,0.105,north,5.9,No
2017/09/10,18:10,0.349,0.213,0.352,0.329,0.315,0.173,0.105,north-northwest,4.5,No
2017/09/10,18:20,0.346,0.214,0.349,0.329,0.319,0.173,0.105,north-northwest,5.0,No
2017/09/10,18:30,0.353,0.214,0.351,0.325,0.319,0.173,0.106,north-northwest,5.5,No
2017/09/10,18:40,0.349,0.215,0.353,0.330,0.314,0.175,0.106,north-northwest,4.2,No
2017/09/10,18:50,0.347,0.216,0.349,0.329,0.319,0.173,0.105,northwest,3.6,No
2017/09/10,19:00,0.350,0.214,0.351,0.327,0.320,0.173,0.106,north-northwest,3.3,No
2017/09/10,19:10,0.350,0.215,0.352,0.330,0.318,0.175,0.105,west-northwest,1.5,No
2017/09/10,19:20,0.348,0.213,0.347,0.330,0.320,0.172,0.106,northwest,2.7,No
2017/09/10,19:30,0.351,0.213,0.352,0.327,0.319,0.174,0.106,north-northwest,3.6,No
2017/09/10,19:40,0.349,0.214,0.351,0.331,0.316,0.173,0.106,north-northwest,2.6,No
2017/09/10,19:50,0.349,0.214,0.350,0.329,0.320,0.173,0.105,north-northwest,3.0,No
2017/09/10,20:00,0.352,0.215,0.352,0.327,0.317,0.175,0.106,north-northwest,1.4,No
2017/09/10,20:10,0.348,0.214,0.350,0.331,0.315,0.173,0.107,-,CALM,No
2017/09/10,20:20,0.351,0.213,0.352,0.327,0.319,0.173,0.106,northwest,1.1,No
2017/09/10,20:30,0.351,0.213,0.351,0.330,0.316,0.173,0.106,north-northwest,1.3,No
2017/09/10,20:40,0.348,0.215,0.350,0.329,0.318,0.173,0.106,north-northwest,0.9,No
2017/09/10,20:50,0.353,0.214,0.353,0.329,0.318,0.174,0.105,-,CALM,No
2017/09/10,21:00,0.350,0.216,0.351,0.331,0.316,0.174,0.106,-,CALM,No
2017/09/10,21:10,0.350,0.214,0.351,0.328,0.320,0.174,0.106,southwest,1.8,No
2017/09/10,21:20,0.352,0.215,0.351,0.329,0.319,0.173,0.106,south,1.1,No
2017/09/10,21:30,0.347,0.216,0.348,0.330,0.318,0.173,0.106,-,CALM,No
2017/09/10,21:40,0.353,0.214,0.353,0.327,0.319,0.174,0.106,east,0.9,No
2017/09/10,21:50,0.349,0.215,0.349,0.331,0.316,0.174,0.107,east,1.0,No
2017/09/10,22:00,0.351,0.214,0.353,0.329,0.319,0.174,0.105,east-southeast,1.0,No
2017/09/10,22:10,0.351,0.216,0.351,0.331,0.318,0.174,0.107,east,0.7,No
2017/09/10,22:20,0.349,0.213,0.351,0.330,0.317,0.174,0.105,north,0.7,No
2017/09/10,22:30,0.353,0.214,0.352,0.329,0.319,0.174,0.107,-,CALM,No
2017/09/10,22:40,0.347,0.214,0.350,0.330,0.316,0.172,0.106,south,0.8,No
2017/09/10,22:50,0.350,0.215,0.352,0.328,0.319,0.174,0.107,-,CALM,No
2017/09/10,23:00,0.350,0.214,0.351,0.331,0.317,0.173,0.106,northwest,0.9,No
2017/09/10,23:10,0.351,0.215,0.353,0.328,0.318,0.173,0.107,-,CALM,No
2017/09/10,23:20,0.350,0.213,0.350,0.330,0.319,0.173,0.106,west-northwest,0.9,No
2017/09/10,23:30,0.348,0.215,0.351,0.331,0.315,0.174,0.106,west-southwest,1.0,No
2017/09/10,23:40,0.351,0.213,0.351,0.328,0.320,0.173,0.106,south-southwest,1.0,No
2017/09/10,23:50,0.348,0.216,0.351,0.331,0.316,0.174,0.106,west-southwest,0.5,No
